Date String (YYYY-MM-DD hh:mm:ss) UTC,Instrument flags,absolute air pressure of the measurement (hPa),sample flow rate (lpm),inlet stack bypass flow (lpm),air temperature of the measurement (°C),ambient temperature measured by the external sensor (°C),aerosol sample conditioner tube jacket temperature (°C),OPC LED temperature (°C),internal box temperature (°C),relative humidity of the measurement (%),span deviation,mass concentration of particles derived from Lorenz-Mie calculation of OPC scattering (μg/m³),mass concentration of particles derived from Lorenz-Mie calculation of OPC scattering (μg/m³),mass concentration of particles derived from Lorenz-Mie calculation of OPC scattering (μg/m³)
DateTimeUTC,F1_M11,P_M11,Q1_M11,Q2_M11,T1_M11,T2_M11,T3_M11,T4_M11,T5_M11,U1_M11,ZSPAN_M11,X0_M11,X2_M11,X1_M11
2023-07-03 21:00:00,SystemResetWarning,0830.4,5.00,000.00,028.4,025.8,000.0,036.8,029.9,21.1,0000.0,0011.33,0004.56,0004.11
2023-07-03 21:01:00,SystemResetWarning,0830.4,5.00,000.00,028.5,026.3,000.0,036.8,030.1,20.8,0000.0,0011.90,0004.57,0004.12
2023-07-03 21:02:00,SystemResetWarning,0830.4,5.00,000.00,028.5,026.6,000.0,036.8,030.1,18.3,0000.0,0012.06,0004.60,0004.12
2023-07-03 21:03:00,SystemResetWarning,0830.4,5.00,000.00,028.5,027.0,000.0,036.9,030.2,18.9,0000.0,0012.09,0004.61,0004.12
2023-07-03 21:04:00,SystemResetWarning,0830.4,5.00,000.00,028.6,027.3,000.0,036.9,030.3,20.0,0000.0,0010.75,0004.57,0004.13
2023-07-03 21:05:00,SystemResetWarning,0830.3,4.98,000.00,028.6,026.6,000.0,036.8,030.3,19.1,0000.0,0010.31,0004.60,0004.14
2023-07-03 21:06:00,SystemResetWarning,0830.3,5.00,000.00,028.6,024.9,000.0,036.7,030.1,20.4,0000.0,0009.84,0004.58,0004.14
2023-07-03 21:07:00,SystemResetWarning,0830.3,5.02,000.00,028.5,024.7,000.0,036.7,030.0,20.3,0000.0,0009.35,0004.58,0004.14
2023-07-03 21:08:00,SystemResetWarning,0830.3,4.99,000.00,028.5,025.1,000.0,036.7,029.9,19.8,0000.0,0009.59,0004.59,0004.14
2023-07-03 21:09:00,SystemResetWarning,0830.3,5.00,000.00,028.4,025.5,000.0,036.7,029.9,18.6,0000.0,0011.05,0004.63,0004.15
2023-07-03 21:10:00,SystemResetWarning,0830.3,5.00,000.00,028.4,026.0,000.0,036.8,030.0,18.7,0000.0,0012.08,0004.65,0004.16
2023-07-03 21:11:00,SystemResetWarning,0830.3,5.00,000.00,028.5,026.4,000.0,036.8,030.1,20.0,0000.0,0012.10,0004.70,0004.17
2023-07-03 21:12:00,SystemResetWarning,0830.4,4.99,000.00,028.5,026.8,000.0,036.8,030.2,20.0,0000.0,0011.75,0004.70,0004.18
2023-07-03 21:13:00,SystemResetWarning,0830.4,4.99,000.00,028.6,027.1,000.0,036.9,030.3,19.7,0000.0,0011.74,0004.68,0004.19
2023-07-03 21:14:00,SystemResetWarning,0830.4,5.00,000.00,028.6,027.4,000.0,036.9,030.4,18.8,0000.0,0012.96,0004.70,0004.19
2023-07-03 21:15:00,SystemResetWarning,0830.4,5.00,000.00,028.6,026.9,000.0,036.8,030.3,18.9,0000.0,0012.86,0004.70,0004.19
2023-07-03 21:16:00,SystemResetWarning,0830.3,5.00,000.00,028.6,025.2,000.0,036.8,030.1,18.5,0000.0,0012.85,0004.69,0004.19
2023-07-03 21:17:00,SystemResetWarning,0830.3,5.01,000.00,028.5,024.8,000.0,036.7,030.0,19.0,0000.0,0012.87,0004.71,0004.20
2023-07-03 21:18:00,SystemResetWarning,0830.3,5.01,000.00,028.5,025.1,000.0,036.7,029.9,19.4,0000.0,0012.88,0004.73,0004.21
2023-07-03 21:19:00,SystemResetWarning,0830.3,5.00,000.00,028.4,025.5,000.0,036.7,029.9,17.6,0000.0,0012.89,0004.77,0004.23
2023-07-03 21:20:00,SystemResetWarning,0830.3,5.00,000.00,028.5,026.0,000.0,036.8,030.0,18.0,0000.0,0011.47,0004.78,0004.25
2023-07-03 21:21:00,SystemResetWarning,0830.3,5.00,000.00,028.5,026.4,000.0,036.8,030.1,19.3,0000.0,0010.13,0004.80,0004.26
2023-07-03 21:22:00,SystemResetWarning,0830.3,4.99,000.00,028.5,026.8,000.0,036.8,030.2,19.3,0000.0,0010.47,0004.80,0004.26
2023-07-03 21:23:00,SystemResetWarning,0830.3,5.00,000.00,028.6,027.1,000.0,036.9,030.3,18.8,0000.0,0010.73,0004.80,0004.26
2023-07-03 21:24:00,SystemResetWarning,0830.3,5.00,000.00,028.6,027.3,000.0,036.9,030.4,18.9,0000.0,0011.04,0004.84,0004.26
2023-07-03 21:25:00,SystemResetWarning,0830.2,4.98,000.00,028.6,026.1,000.0,036.8,030.2,19.2,0000.0,0009.98,0004.84,0004.25
2023-07-03 21:26:00,SystemResetWarning,0830.3,5.01,000.00,028.6,024.7,000.0,036.7,030.0,18.0,0000.0,0010.24,0004.84,0004.26
2023-07-03 21:27:00,SystemResetWarning,0830.3,5.01,000.00,028.5,024.8,000.0,036.7,030.0,18.7,0000.0,0010.30,0004.84,0004.25
2023-07-03 21:28:00,SystemResetWarning,0830.3,4.99,000.00,028.5,025.2,000.0,036.7,029.9,19.5,0000.0,0010.51,0004.80,0004.25
2023-07-03 21:29:00,SystemResetWarning,0830.2,5.00,000.00,028.4,025.7,000.0,036.8,029.9,19.3,0000.0,0010.62,0004.81,0004.24
2023-07-03 21:30:00,SystemResetWarning,0830.2,5.01,000.00,028.5,026.1,000.0,036.8,030.0,18.6,0000.0,0010.46,0004.76,0004.23
2023-07-03 21:31:00,SystemResetWarning,0830.3,5.00,000.00,028.5,026.6,000.0,036.8,030.2,19.9,0000.0,0010.43,0004.74,0004.22
2023-07-03 21:32:00,SystemResetWarning,0830.2,4.99,000.00,028.6,026.9,000.0,036.8,030.3,19.7,0000.0,0010.52,0004.70,0004.22
2023-07-03 21:33:00,SystemResetWarning,0830.2,4.99,000.00,028.6,027.3,000.0,036.9,030.3,20.8,0000.0,0009.97,0004.69,0004.21
2023-07-03 21:34:00,SystemResetWarning,0830.2,5.00,000.00,028.7,027.5,000.0,036.9,030.4,20.4,0000.0,0009.54,0004.70,0004.21
2023-07-03 21:35:00,SystemResetWarning,0830.1,5.00,000.00,028.7,026.5,000.0,036.9,030.3,19.2,0000.0,0009.60,0004.71,0004.22
2023-07-03 21:36:00,SystemResetWarning,0830.1,5.00,000.00,028.6,024.9,000.0,036.8,030.1,19.0,0000.0,0010.65,0004.75,0004.23
2023-07-03 21:37:00,SystemResetWarning,0830.1,5.02,000.00,028.6,024.9,000.0,036.7,030.0,18.8,0000.0,0010.76,0004.80,0004.24
2023-07-03 21:38:00,SystemResetWarning,0830.1,5.00,000.00,028.5,025.3,000.0,036.7,029.9,20.2,0000.0,0012.34,0004.89,0004.24
2023-07-03 21:39:00,SystemResetWarning,0830.1,5.00,000.00,028.5,025.7,000.0,036.8,030.0,20.0,0000.0,0013.03,0004.94,0004.25
2023-07-03 21:40:00,SystemResetWarning,0830.1,5.01,000.00,028.5,026.2,000.0,036.8,030.1,19.5,0000.0,0013.17,0004.91,0004.25
2023-07-03 21:41:00,SystemResetWarning,0830.1,4.99,000.00,028.5,026.6,000.0,036.8,030.2,19.5,0000.0,0013.41,0004.92,0004.25
2023-07-03 21:42:00,SystemResetWarning,0830.1,4.99,000.00,028.6,027.0,000.0,036.9,030.3,18.2,0000.0,0013.51,0004.98,0004.25
2023-07-03 21:43:00,SystemResetWarning,0830.1,5.01,000.00,028.6,027.3,000.0,036.9,030.4,18.5,0000.0,0014.08,0004.99,0004.24
2023-07-03 21:44:00,SystemResetWarning,0830.1,5.01,000.00,028.7,027.6,000.0,036.9,030.5,18.9,0000.0,0014.31,0005.01,0004.24
2023-07-03 21:45:00,SystemResetWarning,0830.1,4.99,000.00,028.7,026.8,000.0,036.9,030.4,19.8,0000.0,0014.36,0005.01,0004.24
2023-07-03 21:46:00,SystemResetWarning,0830.0,4.99,000.00,028.7,025.2,000.0,036.8,030.1,20.1,0000.0,0014.50,0005.01,0004.25
2023-07-03 21:47:00,SystemResetWarning,0830.0,5.01,000.00,028.6,024.9,000.0,036.7,030.1,20.1,0000.0,0013.83,0004.99,0004.24
2023-07-03 21:48:00,SystemResetWarning,0830.1,5.01,000.00,028.6,025.3,000.0,036.8,030.0,18.4,0000.0,0013.28,0004.95,0004.25
2023-07-03 21:49:00,SystemResetWarning,0830.0,4.98,000.00,028.5,025.7,000.0,036.8,030.0,19.1,0000.0,0012.83,0004.90,0004.24
2023-07-03 21:50:00,SystemResetWarning,0830.1,5.00,000.00,028.6,026.2,000.0,036.8,030.1,19.8,0000.0,0012.78,0004.91,0004.24
2023-07-03 21:51:00,SystemResetWarning,0830.0,5.00,000.00,028.6,026.6,000.0,036.9,030.2,19.9,0000.0,0012.61,0004.94,0004.24
2023-07-03 21:52:00,SystemResetWarning,0830.0,5.01,000.00,028.6,027.0,000.0,036.9,030.3,19.9,0000.0,0012.80,0004.97,0004.24
2023-07-03 21:53:00,SystemResetWarning,0830.0,5.00,000.00,028.7,027.3,000.0,036.9,030.4,19.1,0000.0,0012.90,0004.94,0004.23
2023-07-03 21:54:00,SystemResetWarning,0830.0,4.98,000.00,028.7,027.4,000.0,037.0,030.5,18.8,0000.0,0012.31,0004.95,0004.24
2023-07-03 21:55:00,SystemResetWarning,0830.0,5.00,000.00,028.7,026.0,000.0,036.9,030.3,18.8,0000.0,0012.11,0004.96,0004.24
2023-07-03 21:56:00,SystemResetWarning,0830.0,5.00,000.00,028.6,024.8,000.0,036.8,030.1,18.8,0000.0,0012.08,0004.94,0004.23
2023-07-03 21:57:00,SystemResetWarning,0830.0,5.02,000.00,028.6,025.0,000.0,036.8,030.0,18.1,0000.0,0011.61,0004.93,0004.21
2023-07-03 21:58:00,SystemResetWarning,0830.0,4.99,000.00,028.5,025.4,000.0,036.8,030.0,18.7,0000.0,0011.06,0004.89,0004.21
2023-07-03 21:59:00,SystemResetWarning,0830.0,4.99,000.00,028.5,025.9,000.0,036.8,030.0,18.8,0000.0,0011.08,0004.89,0004.21
